Time,TemperatureF,DewpointF,PressureIn,WindDirection,WindDirectionDegrees,WindSpeedMPH,WindSpeedGustMPH,Humidity,HourlyPrecipIn,Conditions,Clouds,dailyrainin,SoftwareType,DateUTC
2013-09-19 00:01:00,45.8,43.9,30.23,South,175,0.0,1.0,93,0.00,,,0.00,Wunderground v.1.15,2013-09-19 04:01:00,
2013-09-19 00:02:00,45.8,43.9,30.23,South,175,0.0,1.0,93,0.00,,,0.00,Wunderground v.1.15,2013-09-19 04:02:00,
2013-09-19 00:04:00,45.8,43.9,30.23,South,175,0.0,1.0,93,0.00,,,0.00,Wunderground v.1.15,2013-09-19 04:04:00,
2013-09-19 00:07:00,45.7,44.1,30.23,South,175,0.0,1.0,94,0.00,,,0.00,Wunderground v.1.15,2013-09-19 04:07:00,
2013-09-19 00:12:00,45.6,43.7,30.23,South,175,0.0,1.0,93,0.00,,,0.00,Wunderground v.1.15,2013-09-19 04:12:00,
2013-09-19 00:14:00,45.5,43.6,30.23,South,175,0.0,1.0,93,0.00,,,0.00,Wunderground v.1.15,2013-09-19 04:14:00,
2013-09-19 00:18:00,45.4,43.5,30.23,South,175,0.0,1.0,93,0.00,,,0.00,Wunderground v.1.15,2013-09-19 04:18:00,
2013-09-19 00:24:00,45.3,43.7,30.23,South,175,0.0,1.0,94,0.00,,,0.00,Wunderground v.1.15,2013-09-19 04:24:00,
2013-09-19 00:29:00,45.2,43.6,30.22,South,175,0.0,1.0,94,0.00,,,0.00,Wunderground v.1.15,2013-09-19 04:29:00,
2013-09-19 00:35:00,45.3,43.7,30.23,South,175,0.0,1.0,94,0.00,,,0.00,Wunderground v.1.15,2013-09-19 04:35:00,
2013-09-19 00:41:00,45.3,43.7,30.23,South,175,0.0,1.0,94,0.00,,,0.00,Wunderground v.1.15,2013-09-19 04:41:00,
2013-09-19 00:47:00,45.2,43.6,30.23,South,175,0.0,1.0,94,0.00,,,0.00,Wunderground v.1.15,2013-09-19 04:47:00,
2013-09-19 00:53:00,45.1,43.5,30.22,South,175,0.0,1.0,94,0.00,,,0.00,Wunderground v.1.15,2013-09-19 04:53:00,
2013-09-19 00:58:00,44.9,43.0,30.22,South,175,0.0,1.0,93,0.00,,,0.00,Wunderground v.1.15,2013-09-19 04:58:00,
2013-09-19 01:03:00,44.6,43.0,30.22,South,175,0.0,4.0,94,0.00,,,0.00,Wunderground v.1.15,2013-09-19 05:03:00,
2013-09-19 01:09:00,44.4,42.8,30.23,South,175,0.0,4.0,94,0.00,,,0.00,Wunderground v.1.15,2013-09-19 05:09:00,
2013-09-19 01:14:00,44.4,42.8,30.23,South,175,0.0,4.0,94,0.00,,,0.00,Wunderground v.1.15,2013-09-19 05:14:00,
2013-09-19 01:20:00,44.4,42.8,30.23,South,175,0.0,4.0,94,0.00,,,0.00,Wunderground v.1.15,2013-09-19 05:20:00,
2013-09-19 01:26:00,44.3,42.7,30.23,South,175,0.0,4.0,94,0.00,,,0.00,Wunderground v.1.15,2013-09-19 05:26:00,
2013-09-19 01:31:00,44.3,42.7,30.23,South,175,0.0,4.0,94,0.00,,,0.00,Wunderground v.1.15,2013-09-19 05:31:00,
2013-09-19 01:36:00,44.2,42.6,30.23,South,175,0.0,4.0,94,0.00,,,0.00,Wunderground v.1.15,2013-09-19 05:36:00,
2013-09-19 01:42:00,44.1,42.5,30.23,South,175,0.0,4.0,94,0.00,,,0.00,Wunderground v.1.15,2013-09-19 05:42:00,
2013-09-19 01:48:00,44.0,42.4,30.23,South,175,0.0,4.0,94,0.00,,,0.00,Wunderground v.1.15,2013-09-19 05:48:00,
2013-09-19 01:53:00,43.9,42.3,30.23,South,175,0.0,4.0,94,0.00,,,0.00,Wunderground v.1.15,2013-09-19 05:53:00,
2013-09-19 01:59:00,43.8,42.2,30.23,South,175,0.0,4.0,94,0.00,,,0.00,Wunderground v.1.15,2013-09-19 05:59:00,
2013-09-19 02:05:00,43.5,41.9,30.23,South,175,0.0,4.0,94,0.00,,,0.00,Wunderground v.1.15,2013-09-19 06:05:00,
2013-09-19 02:11:00,43.4,41.8,30.23,South,175,0.0,4.0,94,0.00,,,0.00,Wunderground v.1.15,2013-09-19 06:11:00,
2013-09-19 02:16:00,43.2,41.6,30.23,South,175,0.0,4.0,94,0.00,,,0.00,Wunderground v.1.15,2013-09-19 06:16:00,
2013-09-19 02:22:00,43.0,41.4,30.23,South,175,0.0,4.0,94,0.00,,,0.00,Wunderground v.1.15,2013-09-19 06:22:00,
2013-09-19 02:28:00,42.8,41.2,30.23,South,175,0.0,4.0,94,0.00,,,0.00,Wunderground v.1.15,2013-09-19 06:28:00,
2013-09-19 02:34:00,42.6,41.0,30.23,South,175,0.0,4.0,94,0.00,,,0.00,Wunderground v.1.15,2013-09-19 06:34:00,
2013-09-19 02:39:00,42.5,41.2,30.22,South,175,0.0,4.0,95,0.00,,,0.00,Wunderground v.1.15,2013-09-19 06:39:00,
2013-09-19 02:45:00,42.5,41.2,30.22,South,175,0.0,4.0,95,0.00,,,0.00,Wunderground v.1.15,2013-09-19 06:45:00,
2013-09-19 02:51:00,42.5,41.2,30.22,South,175,0.0,4.0,95,0.00,,,0.00,Wunderground v.1.15,2013-09-19 06:51:00,
2013-09-19 02:56:00,42.4,41.1,30.22,South,175,0.0,4.0,95,0.00,,,0.00,Wunderground v.1.15,2013-09-19 06:56:00,
2013-09-19 03:02:00,42.4,41.1,30.22,South,175,0.0,4.0,95,0.00,,,0.00,Wunderground v.1.15,2013-09-19 07:02:00,
2013-09-19 03:08:00,42.4,41.1,30.22,South,175,0.0,4.0,95,0.00,,,0.00,Wunderground v.1.15,2013-09-19 07:08:00,
2013-09-19 03:14:00,42.3,41.0,30.22,South,175,0.0,4.0,95,0.00,,,0.00,Wunderground v.1.15,2013-09-19 07:14:00,
2013-09-19 03:19:00,42.3,41.0,30.22,South,175,0.0,4.0,95,0.00,,,0.00,Wunderground v.1.15,2013-09-19 07:19:00,
2013-09-19 03:25:00,42.3,41.0,30.22,South,175,0.0,4.0,95,0.00,,,0.00,Wunderground v.1.15,2013-09-19 07:25:00,
2013-09-19 03:31:00,42.4,41.1,30.22,South,175,0.0,4.0,95,0.00,,,0.00,Wunderground v.1.15,2013-09-19 07:31:00,
2013-09-19 03:37:00,42.4,41.1,30.22,South,175,0.0,4.0,95,0.00,,,0.00,Wunderground v.1.15,2013-09-19 07:37:00,
2013-09-19 03:42:00,42.3,41.0,30.22,South,175,0.0,4.0,95,0.00,,,0.00,Wunderground v.1.15,2013-09-19 07:42:00,
2013-09-19 03:48:00,42.1,40.8,30.22,South,175,0.0,4.0,95,0.00,,,0.00,Wunderground v.1.15,2013-09-19 07:48:00,
2013-09-19 03:54:00,41.8,40.5,30.22,South,175,0.0,4.0,95,0.00,,,0.00,Wunderground v.1.15,2013-09-19 07:54:00,
2013-09-19 04:00:00,41.6,40.3,30.22,South,175,0.0,4.0,95,0.00,,,0.00,Wunderground v.1.15,2013-09-19 08:00:00,
2013-09-19 04:06:00,41.5,40.2,30.22,South,175,0.0,4.0,95,0.00,,,0.00,Wunderground v.1.15,2013-09-19 08:06:00,
2013-09-19 04:12:00,41.5,40.2,30.22,South,175,0.0,4.0,95,0.00,,,0.00,Wunderground v.1.15,2013-09-19 08:12:00,
2013-09-19 04:18:00,41.4,40.1,30.22,South,175,0.0,4.0,95,0.00,,,0.00,Wunderground v.1.15,2013-09-19 08:18:00,
2013-09-19 04:23:00,41.2,39.9,30.22,South,175,0.0,4.0,95,0.00,,,0.00,Wunderground v.1.15,2013-09-19 08:23:00,
2013-09-19 04:29:00,41.1,39.8,30.22,South,175,0.0,4.0,95,0.00,,,0.00,Wunderground v.1.15,2013-09-19 08:29:00,
2013-09-19 04:35:00,41.2,39.9,30.22,South,175,0.0,4.0,95,0.00,,,0.00,Wunderground v.1.15,2013-09-19 08:35:00,
2013-09-19 04:41:00,41.1,39.8,30.22,South,175,0.0,4.0,95,0.00,,,0.00,Wunderground v.1.15,2013-09-19 08:41:00,
2013-09-19 04:46:00,41.1,39.8,30.22,South,175,0.0,4.0,95,0.00,,,0.00,Wunderground v.1.15,2013-09-19 08:46:00,
2013-09-19 04:52:00,41.5,40.4,30.22,South,175,0.0,4.0,96,0.00,,,0.00,Wunderground v.1.15,2013-09-19 08:52:00,
2013-09-19 04:58:00,41.8,40.7,30.22,South,175,0.0,4.0,96,0.00,,,0.00,Wunderground v.1.15,2013-09-19 08:58:00,
2013-09-19 05:03:00,41.8,40.7,30.22,South,175,0.0,4.0,96,0.00,,,0.00,Wunderground v.1.15,2013-09-19 09:03:00,
2013-09-19 05:08:00,41.6,40.3,30.22,South,175,0.0,4.0,95,0.00,,,0.00,Wunderground v.1.15,2013-09-19 09:08:00,
2013-09-19 05:14:00,41.3,40.0,30.21,South,175,0.0,4.0,95,0.00,,,0.00,Wunderground v.1.15,2013-09-19 09:14:00,
2013-09-19 05:19:00,40.9,39.6,30.22,South,175,0.0,4.0,95,0.00,,,0.00,Wunderground v.1.15,2013-09-19 09:19:00,
2013-09-19 05:25:00,40.5,39.2,30.22,South,175,0.0,4.0,95,0.00,,,0.00,Wunderground v.1.15,2013-09-19 09:25:00,
2013-09-19 05:31:00,40.3,39.0,30.22,South,175,0.0,4.0,95,0.00,,,0.00,Wunderground v.1.15,2013-09-19 09:31:00,
2013-09-19 05:37:00,40.1,38.8,30.22,South,175,0.0,4.0,95,0.00,,,0.00,Wunderground v.1.15,2013-09-19 09:37:00,
2013-09-19 05:43:00,40.1,38.8,30.22,South,175,0.0,4.0,95,0.00,,,0.00,Wunderground v.1.15,2013-09-19 09:43:00,
2013-09-19 05:49:00,39.8,38.5,30.22,South,175,0.0,4.0,95,0.00,,,0.00,Wunderground v.1.15,2013-09-19 09:49:00,
2013-09-19 05:55:00,39.7,38.4,30.22,South,175,0.0,4.0,95,0.00,,,0.00,Wunderground v.1.15,2013-09-19 09:55:00,
2013-09-19 06:00:00,39.7,38.4,30.22,South,175,0.0,4.0,95,0.00,,,0.00,Wunderground v.1.15,2013-09-19 10:00:00,
2013-09-19 06:06:00,39.6,38.3,30.22,South,175,0.0,4.0,95,0.00,,,0.00,Wunderground v.1.15,2013-09-19 10:06:00,
2013-09-19 06:12:00,39.5,38.2,30.22,South,175,0.0,4.0,95,0.00,,,0.00,Wunderground v.1.15,2013-09-19 10:12:00,
2013-09-19 06:18:00,39.6,38.3,30.22,South,175,0.0,4.0,95,0.00,,,0.00,Wunderground v.1.15,2013-09-19 10:18:00,
2013-09-19 06:23:00,39.7,38.7,30.22,South,175,0.0,4.0,96,0.00,,,0.00,Wunderground v.1.15,2013-09-19 10:23:00,
2013-09-19 06:29:00,39.6,38.3,30.22,South,175,0.0,4.0,95,0.00,,,0.00,Wunderground v.1.15,2013-09-19 10:29:00,
2013-09-19 06:35:00,39.5,38.2,30.23,South,175,0.0,4.0,95,0.00,,,0.00,Wunderground v.1.15,2013-09-19 10:35:00,
2013-09-19 06:41:00,39.6,38.3,30.23,South,175,0.0,4.0,95,0.00,,,0.00,Wunderground v.1.15,2013-09-19 10:41:00,
2013-09-19 06:47:00,39.8,38.8,30.23,South,175,0.0,4.0,96,0.00,,,0.00,Wunderground v.1.15,2013-09-19 10:47:00,
2013-09-19 06:53:00,40.0,39.0,30.23,South,175,0.0,4.0,96,0.00,,,0.00,Wunderground v.1.15,2013-09-19 10:53:00,
2013-09-19 06:59:00,39.8,38.5,30.24,South,175,0.0,4.0,95,0.00,,,0.00,Wunderground v.1.15,2013-09-19 10:59:00,
2013-09-19 07:04:00,39.6,38.3,30.23,South,175,0.0,4.0,95,0.00,,,0.00,Wunderground v.1.15,2013-09-19 11:04:00,
2013-09-19 07:10:00,39.6,38.3,30.23,South,175,0.0,4.0,95,0.00,,,0.00,Wunderground v.1.15,2013-09-19 11:10:00,
2013-09-19 07:16:00,39.5,38.2,30.23,South,175,0.0,4.0,95,0.00,,,0.00,Wunderground v.1.15,2013-09-19 11:16:00,
2013-09-19 07:22:00,39.6,38.3,30.23,South,175,0.0,4.0,95,0.00,,,0.00,Wunderground v.1.15,2013-09-19 11:22:00,
2013-09-19 07:27:00,39.7,38.4,30.23,South,175,0.0,4.0,95,0.00,,,0.00,Wunderground v.1.15,2013-09-19 11:27:00,
2013-09-19 07:33:00,39.9,38.6,30.23,South,175,0.0,4.0,95,0.00,,,0.00,Wunderground v.1.15,2013-09-19 11:33:00,
2013-09-19 07:39:00,40.5,39.4,30.23,South,175,0.0,4.0,96,0.00,,,0.00,Wunderground v.1.15,2013-09-19 11:39:00,
2013-09-19 07:45:00,41.2,40.1,30.23,South,175,0.0,4.0,96,0.00,,,0.00,Wunderground v.1.15,2013-09-19 11:45:00,
2013-09-19 07:51:00,41.9,40.8,30.23,South,175,0.0,4.0,96,0.00,,,0.00,Wunderground v.1.15,2013-09-19 11:51:00,
2013-09-19 07:57:00,42.4,41.3,30.23,South,175,0.0,4.0,96,0.00,,,0.00,Wunderground v.1.15,2013-09-19 11:57:00,
2013-09-19 08:03:00,42.9,41.8,30.22,South,175,0.0,4.0,96,0.00,,,0.00,Wunderground v.1.15,2013-09-19 12:03:00,
2013-09-19 08:08:00,43.5,42.4,30.22,South,175,0.0,4.0,96,0.00,,,0.00,Wunderground v.1.15,2013-09-19 12:08:00,
2013-09-19 08:14:00,44.6,43.8,30.22,South,175,0.0,4.0,97,0.00,,,0.00,Wunderground v.1.15,2013-09-19 12:14:00,
2013-09-19 08:20:00,45.1,44.0,30.22,South,175,0.0,4.0,96,0.00,,,0.00,Wunderground v.1.15,2013-09-19 12:20:00,
2013-09-19 08:26:00,45.8,44.4,30.22,South,175,0.0,4.0,95,0.00,,,0.00,Wunderground v.1.15,2013-09-19 12:26:00,
2013-09-19 08:31:00,46.3,44.9,30.22,South,175,0.0,4.0,95,0.00,,,0.00,Wunderground v.1.15,2013-09-19 12:31:00,
2013-09-19 08:37:00,46.9,45.5,30.22,South,175,0.0,4.0,95,0.00,,,0.00,Wunderground v.1.15,2013-09-19 12:37:00,
2013-09-19 08:43:00,47.3,45.7,30.22,South,175,0.0,4.0,94,0.00,,,0.00,Wunderground v.1.15,2013-09-19 12:43:00,
2013-09-19 08:49:00,48.1,46.5,30.22,South,175,0.0,4.0,94,0.00,,,0.00,Wunderground v.1.15,2013-09-19 12:49:00,
2013-09-19 08:55:00,49.0,47.3,30.22,South,175,0.0,4.0,94,0.00,,,0.00,Wunderground v.1.15,2013-09-19 12:55:00,
2013-09-19 09:01:00,50.0,48.3,30.21,South,175,0.0,4.0,94,0.00,,,0.00,Wunderground v.1.15,2013-09-19 13:01:00,
2013-09-19 09:07:00,50.8,48.6,30.22,South,175,0.0,4.0,92,0.00,,,0.00,Wunderground v.1.15,2013-09-19 13:07:00,
2013-09-19 09:12:00,51.5,48.7,30.22,South,175,0.0,4.0,90,0.00,,,0.00,Wunderground v.1.15,2013-09-19 13:12:00,
2013-09-19 09:18:00,52.3,49.2,30.22,South,175,0.0,4.0,89,0.00,,,0.00,Wunderground v.1.15,2013-09-19 13:18:00,
2013-09-19 09:24:00,53.2,49.4,30.22,South,175,0.0,4.0,87,0.00,,,0.00,Wunderground v.1.15,2013-09-19 13:24:00,
2013-09-19 09:30:00,54.0,49.9,30.22,South,175,0.0,4.0,86,0.00,,,0.00,Wunderground v.1.15,2013-09-19 13:30:00,
2013-09-19 09:35:00,54.9,49.8,30.21,South,175,0.0,4.0,83,0.00,,,0.00,Wunderground v.1.15,2013-09-19 13:35:00,
2013-09-19 09:41:00,55.8,50.1,30.21,South,175,0.0,4.0,81,0.00,,,0.00,Wunderground v.1.15,2013-09-19 13:41:00,
2013-09-19 09:47:00,57.2,51.1,30.21,South,175,0.0,4.0,80,0.00,,,0.00,Wunderground v.1.15,2013-09-19 13:47:00,
2013-09-19 09:53:00,58.8,51.6,30.21,South,175,0.0,4.0,77,0.00,,,0.00,Wunderground v.1.15,2013-09-19 13:53:00,
2013-09-19 09:59:00,60.3,52.7,30.21,South,175,0.0,4.0,76,0.00,,,0.00,Wunderground v.1.15,2013-09-19 13:59:00,
2013-09-19 10:05:00,61.7,52.2,30.21,South,175,0.0,4.0,71,0.00,,,0.00,Wunderground v.1.15,2013-09-19 14:05:00,
2013-09-19 10:11:00,62.6,52.7,30.21,South,175,0.0,4.0,70,0.00,,,0.00,Wunderground v.1.15,2013-09-19 14:11:00,
2013-09-19 10:16:00,63.3,52.6,30.20,South,175,0.0,4.0,68,0.00,,,0.00,Wunderground v.1.15,2013-09-19 14:16:00,
2013-09-19 10:22:00,64.3,52.7,30.21,South,175,0.0,4.0,66,0.00,,,0.00,Wunderground v.1.15,2013-09-19 14:22:00,
2013-09-19 10:28:00,65.1,52.6,30.20,South,175,0.0,4.0,64,0.00,,,0.00,Wunderground v.1.15,2013-09-19 14:28:00,
2013-09-19 10:34:00,66.0,52.2,30.20,South,175,0.0,4.0,61,0.00,,,0.00,Wunderground v.1.15,2013-09-19 14:34:00,
2013-09-19 10:39:00,66.6,51.4,30.20,South,175,0.0,4.0,58,0.00,,,0.00,Wunderground v.1.15,2013-09-19 14:39:00,
2013-09-19 10:45:00,67.5,51.7,30.20,South,173,0.0,4.0,57,0.00,,,0.00,Wunderground v.1.15,2013-09-19 14:45:00,
2013-09-19 10:51:00,68.1,52.3,30.20,South,176,0.0,4.0,57,0.00,,,0.00,Wunderground v.1.15,2013-09-19 14:51:00,
2013-09-19 10:57:00,69.3,51.9,30.20,SSW,205,0.0,4.0,54,0.00,,,0.00,Wunderground v.1.15,2013-09-19 14:57:00,
2013-09-19 11:03:00,69.9,52.0,30.20,East,93,0.0,4.0,53,0.00,,,0.00,Wunderground v.1.15,2013-09-19 15:03:00,
2013-09-19 11:09:00,70.4,52.4,30.20,ENE,61,0.0,4.0,53,0.00,,,0.00,Wunderground v.1.15,2013-09-19 15:09:00,
2013-09-19 11:15:00,71.1,52.6,30.20,NE,53,0.0,4.0,52,0.00,,,0.00,Wunderground v.1.15,2013-09-19 15:15:00,
2013-09-19 11:20:00,71.4,52.3,30.20,NE,51,0.0,4.0,51,0.00,,,0.00,Wunderground v.1.15,2013-09-19 15:20:00,
2013-09-19 11:26:00,71.9,52.8,30.19,NE,52,0.0,4.0,51,0.00,,,0.00,Wunderground v.1.15,2013-09-19 15:26:00,
2013-09-19 11:32:00,71.5,51.9,30.19,NE,37,1.0,6.0,50,0.00,,,0.00,Wunderground v.1.15,2013-09-19 15:32:00,
2013-09-19 11:38:00,70.8,51.8,30.19,NE,35,2.0,6.0,51,0.00,,,0.00,Wunderground v.1.15,2013-09-19 15:38:00,
2013-09-19 11:43:00,71.0,52.0,30.20,East,82,1.0,4.0,51,0.00,,,0.00,Wunderground v.1.15,2013-09-19 15:43:00,
2013-09-19 11:49:00,71.1,51.5,30.19,ESE,113,2.0,5.0,50,0.00,,,0.00,Wunderground v.1.15,2013-09-19 15:49:00,
2013-09-19 11:55:00,71.3,51.1,30.19,East,81,2.0,4.0,49,0.00,,,0.00,Wunderground v.1.15,2013-09-19 15:55:00,
2013-09-19 12:01:00,71.7,51.5,30.19,East,80,1.0,4.0,49,0.00,,,0.00,Wunderground v.1.15,2013-09-19 16:01:00,
2013-09-19 12:07:00,72.6,51.8,30.19,East,80,0.0,4.0,48,0.00,,,0.00,Wunderground v.1.15,2013-09-19 16:07:00,
2013-09-19 12:13:00,73.3,51.3,30.19,East,80,0.0,4.0,46,0.00,,,0.00,Wunderground v.1.15,2013-09-19 16:13:00,
2013-09-19 12:18:00,73.9,50.6,30.19,East,88,0.0,4.0,44,0.00,,,0.00,Wunderground v.1.15,2013-09-19 16:18:00,
2013-09-19 12:24:00,74.6,51.9,30.19,East,88,0.0,4.0,45,0.00,,,0.00,Wunderground v.1.15,2013-09-19 16:24:00,
2013-09-19 12:30:00,74.8,50.8,30.19,East,94,1.0,1.0,43,0.00,,,0.00,Wunderground v.1.15,2013-09-19 16:30:00,
2013-09-19 12:35:00,75.3,51.9,30.18,East,94,1.0,4.0,44,0.00,,,0.00,Wunderground v.1.15,2013-09-19 16:35:00,
2013-09-19 12:41:00,75.1,51.1,30.18,East,96,1.0,4.0,43,0.00,,,0.00,Wunderground v.1.15,2013-09-19 16:41:00,
2013-09-19 12:47:00,75.1,51.1,30.18,East,96,1.0,4.0,43,0.00,,,0.00,Wunderground v.1.15,2013-09-19 16:47:00,
2013-09-19 12:53:00,75.6,50.9,30.18,ESE,110,1.0,4.0,42,0.00,,,0.00,Wunderground v.1.15,2013-09-19 16:53:00,
2013-09-19 12:58:00,75.5,50.8,30.17,ESE,111,1.0,4.0,42,0.00,,,0.00,Wunderground v.1.15,2013-09-19 16:58:00,
2013-09-19 13:04:00,75.3,51.9,30.17,ESE,111,1.0,5.0,44,0.00,,,0.00,Wunderground v.1.15,2013-09-19 17:04:00,
2013-09-19 13:10:00,75.2,51.2,30.16,ESE,109,2.0,2.0,43,0.00,,,0.00,Wunderground v.1.15,2013-09-19 17:10:00,
2013-09-19 13:16:00,75.8,51.7,30.16,East,96,1.0,4.0,43,0.00,,,0.00,Wunderground v.1.15,2013-09-19 17:16:00,
2013-09-19 13:21:00,75.9,51.2,30.16,NE,56,1.0,4.0,42,0.00,,,0.00,Wunderground v.1.15,2013-09-19 17:21:00,
2013-09-19 13:27:00,75.7,51.6,30.16,NNE,30,1.0,4.0,43,0.00,,,0.00,Wunderground v.1.15,2013-09-19 17:27:00,
2013-09-19 13:33:00,76.2,51.4,30.16,ENE,78,2.0,4.0,42,0.00,,,0.00,Wunderground v.1.15,2013-09-19 17:33:00,
2013-09-19 13:39:00,76.6,51.8,30.16,ENE,78,1.0,4.0,42,0.00,,,0.00,Wunderground v.1.15,2013-09-19 17:39:00,
2013-09-19 13:45:00,77.1,52.2,30.16,East,86,0.0,4.0,42,0.00,,,0.00,Wunderground v.1.15,2013-09-19 17:45:00,
2013-09-19 13:51:00,77.5,51.3,30.15,NE,51,1.0,4.0,40,0.00,,,0.00,Wunderground v.1.15,2013-09-19 17:51:00,
2013-09-19 13:57:00,77.6,52.0,30.14,ENE,74,1.0,4.0,41,0.00,,,0.00,Wunderground v.1.15,2013-09-19 17:57:00,
2013-09-19 14:02:00,77.8,52.2,30.14,ENE,74,1.0,4.0,41,0.00,,,0.00,Wunderground v.1.15,2013-09-19 18:02:00,
2013-09-19 14:08:00,78.7,52.3,30.14,ENE,74,0.0,4.0,40,0.00,,,0.00,Wunderground v.1.15,2013-09-19 18:08:00,
2013-09-19 14:14:00,78.7,52.3,30.14,ENE,78,1.0,4.0,40,0.00,,,0.00,Wunderground v.1.15,2013-09-19 18:14:00,
2013-09-19 14:20:00,78.5,53.5,30.13,ENE,63,1.0,1.0,42,0.00,,,0.00,Wunderground v.1.15,2013-09-19 18:20:00,
2013-09-19 14:25:00,78.0,52.4,30.13,East,84,2.0,6.0,41,0.00,,,0.00,Wunderground v.1.15,2013-09-19 18:25:00,
2013-09-19 14:31:00,77.7,52.1,30.13,ESE,115,3.0,9.0,41,0.00,,,0.00,Wunderground v.1.15,2013-09-19 18:31:00,
2013-09-19 14:37:00,77.1,52.2,30.13,ENE,71,3.0,9.0,42,0.00,,,0.00,Wunderground v.1.15,2013-09-19 18:37:00,
2013-09-19 14:43:00,77.8,52.9,30.13,ENE,71,1.0,4.0,42,0.00,,,0.00,Wunderground v.1.15,2013-09-19 18:43:00,
2013-09-19 14:49:00,78.4,55.9,30.13,East,93,1.0,4.0,46,0.00,,,0.00,Wunderground v.1.15,2013-09-19 18:49:00,
2013-09-19 14:55:00,78.1,56.2,30.13,East,80,2.0,6.0,47,0.00,,,0.00,Wunderground v.1.15,2013-09-19 18:55:00,
2013-09-19 15:01:00,77.9,55.5,30.12,NNE,30,2.0,4.0,46,0.00,,,0.00,Wunderground v.1.15,2013-09-19 19:01:00,
2013-09-19 15:06:00,77.6,56.4,30.12,NE,45,2.0,4.0,48,0.00,,,0.00,Wunderground v.1.15,2013-09-19 19:06:00,
2013-09-19 15:12:00,77.3,58.3,30.12,ESE,109,2.0,6.0,52,0.00,,,0.00,Wunderground v.1.15,2013-09-19 19:12:00,
2013-09-19 15:18:00,76.9,58.5,30.12,ENE,61,3.0,6.0,53,0.00,,,0.00,Wunderground v.1.15,2013-09-19 19:18:00,
2013-09-19 15:24:00,76.9,59.0,30.11,ESE,110,3.0,5.0,54,0.00,,,0.00,Wunderground v.1.15,2013-09-19 19:24:00,
2013-09-19 15:29:00,77.0,59.1,30.11,East,84,3.0,5.0,54,0.00,,,0.00,Wunderground v.1.15,2013-09-19 19:29:00,
2013-09-19 15:35:00,77.1,59.7,30.11,East,84,3.0,5.0,55,0.00,,,0.00,Wunderground v.1.15,2013-09-19 19:35:00,
2013-09-19 15:41:00,76.9,60.0,30.11,East,86,2.0,4.0,56,0.00,,,0.00,Wunderground v.1.15,2013-09-19 19:41:00,
2013-09-19 15:47:00,76.8,59.4,30.11,East,90,2.0,5.0,55,0.00,,,0.00,Wunderground v.1.15,2013-09-19 19:47:00,
2013-09-19 15:53:00,76.3,58.9,30.11,ESE,116,3.0,6.0,55,0.00,,,0.00,Wunderground v.1.15,2013-09-19 19:53:00,
2013-09-19 15:59:00,76.0,58.7,30.11,ENE,78,4.0,6.0,55,0.00,,,0.00,Wunderground v.1.15,2013-09-19 19:59:00,
2013-09-19 16:05:00,75.9,59.1,30.11,ENE,67,4.0,5.0,56,0.00,,,0.00,Wunderground v.1.15,2013-09-19 20:05:00,
2013-09-19 16:10:00,76.1,58.8,30.10,ENE,75,3.0,3.0,55,0.00,,,0.00,Wunderground v.1.15,2013-09-19 20:10:00,
2013-09-19 16:16:00,76.1,59.3,30.10,ESE,114,3.0,5.0,56,0.00,,,0.00,Wunderground v.1.15,2013-09-19 20:16:00,
2013-09-19 16:22:00,76.1,58.2,30.10,ESE,106,3.0,4.0,54,0.00,,,0.00,Wunderground v.1.15,2013-09-19 20:22:00,
2013-09-19 16:28:00,76.0,57.6,30.10,SE,145,2.0,4.0,53,0.00,,,0.00,Wunderground v.1.15,2013-09-19 20:28:00,
2013-09-19 16:33:00,75.7,57.4,30.10,ESE,109,2.0,6.0,53,0.00,,,0.00,Wunderground v.1.15,2013-09-19 20:33:00,
2013-09-19 16:39:00,75.4,58.1,30.10,East,97,3.0,6.0,55,0.00,,,0.00,Wunderground v.1.15,2013-09-19 20:39:00,
2013-09-19 16:45:00,75.4,58.1,30.10,ESE,107,2.0,5.0,55,0.00,,,0.00,Wunderground v.1.15,2013-09-19 20:45:00,
2013-09-19 16:51:00,75.2,58.4,30.10,SE,132,2.0,4.0,56,0.00,,,0.00,Wunderground v.1.15,2013-09-19 20:51:00,
2013-09-19 16:57:00,75.7,57.9,30.10,SE,130,1.0,4.0,54,0.00,,,0.00,Wunderground v.1.15,2013-09-19 20:57:00,
2013-09-19 17:03:00,75.4,57.6,30.10,East,98,2.0,6.0,54,0.00,,,0.00,Wunderground v.1.15,2013-09-19 21:03:00,
2013-09-19 17:09:00,75.0,57.7,30.11,SE,135,2.0,6.0,55,0.00,,,0.00,Wunderground v.1.15,2013-09-19 21:09:00,
2013-09-19 17:14:00,74.6,57.9,30.11,SSE,167,2.0,5.0,56,0.00,,,0.00,Wunderground v.1.15,2013-09-19 21:14:00,
2013-09-19 17:20:00,74.5,57.8,30.11,SSE,161,1.0,4.0,56,0.00,,,0.00,Wunderground v.1.15,2013-09-19 21:20:00,
2013-09-19 17:26:00,74.2,57.5,30.11,SE,137,1.0,5.0,56,0.00,,,0.00,Wunderground v.1.15,2013-09-19 21:26:00,
2013-09-19 17:32:00,73.9,58.2,30.11,SE,143,1.0,4.0,58,0.00,,,0.00,Wunderground v.1.15,2013-09-19 21:32:00,
2013-09-19 17:37:00,73.8,57.6,30.11,SE,139,1.0,5.0,57,0.00,,,0.00,Wunderground v.1.15,2013-09-19 21:37:00,
2013-09-19 17:43:00,73.8,58.1,30.11,SSE,148,1.0,4.0,58,0.00,,,0.00,Wunderground v.1.15,2013-09-19 21:43:00,
2013-09-19 17:49:00,73.6,57.4,30.10,SE,135,1.0,5.0,57,0.00,,,0.00,Wunderground v.1.15,2013-09-19 21:49:00,
2013-09-19 17:55:00,73.2,57.1,30.10,SE,133,2.0,7.0,57,0.00,,,0.00,Wunderground v.1.15,2013-09-19 21:55:00,
2013-09-19 18:01:00,73.4,56.7,30.10,SSE,156,0.0,4.0,56,0.00,,,0.00,Wunderground v.1.15,2013-09-19 22:01:00,
2013-09-19 18:07:00,73.0,56.4,30.10,SSW,202,1.0,4.0,56,0.00,,,0.00,Wunderground v.1.15,2013-09-19 22:07:00,
2013-09-19 18:13:00,72.6,56.0,30.10,SSW,200,1.0,5.0,56,0.00,,,0.00,Wunderground v.1.15,2013-09-19 22:13:00,
2013-09-19 18:18:00,72.2,55.6,30.10,SSW,211,2.0,5.0,56,0.00,,,0.00,Wunderground v.1.15,2013-09-19 22:18:00,
2013-09-19 18:24:00,71.6,55.6,30.10,SW,215,3.0,6.0,57,0.00,,,0.00,Wunderground v.1.15,2013-09-19 22:24:00,
2013-09-19 18:30:00,71.0,55.5,30.11,SW,215,2.0,2.0,58,0.00,,,0.00,Wunderground v.1.15,2013-09-19 22:30:00,
2013-09-19 18:36:00,70.4,54.9,30.11,SW,215,1.0,5.0,58,0.00,,,0.00,Wunderground v.1.15,2013-09-19 22:36:00,
2013-09-19 18:41:00,69.8,54.4,30.11,SW,217,2.0,5.0,58,0.00,,,0.00,Wunderground v.1.15,2013-09-19 22:41:00,
2013-09-19 18:47:00,69.0,54.5,30.11,SW,220,4.0,7.0,60,0.00,,,0.00,Wunderground v.1.15,2013-09-19 22:47:00,
2013-09-19 18:53:00,68.4,54.4,30.11,SW,219,5.0,6.0,61,0.00,,,0.00,Wunderground v.1.15,2013-09-19 22:53:00,
2013-09-19 18:59:00,67.9,54.4,30.12,SSW,210,3.0,6.0,62,0.00,,,0.00,Wunderground v.1.15,2013-09-19 22:59:00,
2013-09-19 19:05:00,67.4,54.8,30.12,SSW,210,1.0,4.0,64,0.00,,,0.00,Wunderground v.1.15,2013-09-19 23:05:00,
2013-09-19 19:11:00,66.9,54.3,30.12,SSW,210,1.0,4.0,64,0.00,,,0.00,Wunderground v.1.15,2013-09-19 23:11:00,
2013-09-19 19:17:00,66.3,54.6,30.11,SSW,210,0.0,4.0,66,0.00,,,0.00,Wunderground v.1.15,2013-09-19 23:17:00,
2013-09-19 19:22:00,65.7,54.4,30.12,SSW,210,0.0,4.0,67,0.00,,,0.00,Wunderground v.1.15,2013-09-19 23:22:00,
2013-09-19 19:28:00,65.1,54.3,30.12,SSW,210,0.0,4.0,68,0.00,,,0.00,Wunderground v.1.15,2013-09-19 23:28:00,
2013-09-19 19:34:00,64.6,54.2,30.12,SSW,210,0.0,4.0,69,0.00,,,0.00,Wunderground v.1.15,2013-09-19 23:34:00,
2013-09-19 19:40:00,64.1,54.1,30.13,SSW,210,0.0,4.0,70,0.00,,,0.00,Wunderground v.1.15,2013-09-19 23:40:00,
2013-09-19 19:45:00,63.5,53.9,30.13,SSW,210,0.0,4.0,71,0.00,,,0.00,Wunderground v.1.15,2013-09-19 23:45:00,
2013-09-19 19:51:00,63.1,53.9,30.13,SSW,210,0.0,4.0,72,0.00,,,0.00,Wunderground v.1.15,2013-09-19 23:51:00,
2013-09-19 19:57:00,62.6,54.2,30.13,SSW,210,0.0,4.0,74,0.00,,,0.00,Wunderground v.1.15,2013-09-19 23:57:00,
2013-09-19 20:03:00,61.8,53.8,30.13,SSW,210,0.0,4.0,75,0.00,,,0.00,Wunderground v.1.15,2013-09-20 00:03:00,
2013-09-19 20:09:00,61.1,53.8,30.13,SSW,210,0.0,4.0,77,0.00,,,0.00,Wunderground v.1.15,2013-09-20 00:09:00,
2013-09-19 20:15:00,60.5,53.6,30.13,SSW,210,0.0,4.0,78,0.00,,,0.00,Wunderground v.1.15,2013-09-20 00:15:00,
2013-09-19 20:20:00,60.1,53.6,30.13,SSW,210,0.0,4.0,79,0.00,,,0.00,Wunderground v.1.15,2013-09-20 00:20:00,
2013-09-19 20:25:00,59.6,53.4,30.13,SSW,210,0.0,4.0,80,0.00,,,0.00,Wunderground v.1.15,2013-09-20 00:25:00,
2013-09-19 20:31:00,59.0,53.2,30.13,SSW,210,0.0,4.0,81,0.00,,,0.00,Wunderground v.1.15,2013-09-20 00:31:00,
2013-09-19 20:37:00,58.3,52.8,30.13,SSW,210,0.0,4.0,82,0.00,,,0.00,Wunderground v.1.15,2013-09-20 00:37:00,
2013-09-19 20:42:00,57.7,52.6,30.13,SSW,210,0.0,4.0,83,0.00,,,0.00,Wunderground v.1.15,2013-09-20 00:42:00,
2013-09-19 20:48:00,57.2,52.4,30.13,SSW,210,0.0,4.0,84,0.00,,,0.00,Wunderground v.1.15,2013-09-20 00:48:00,
2013-09-19 20:54:00,56.8,52.3,30.13,SSW,210,0.0,4.0,85,0.00,,,0.00,Wunderground v.1.15,2013-09-20 00:54:00,
2013-09-19 20:59:00,56.6,52.5,30.13,SSW,210,0.0,4.0,86,0.00,,,0.00,Wunderground v.1.15,2013-09-20 00:59:00,
2013-09-19 21:05:00,56.3,52.2,30.13,SSW,210,0.0,4.0,86,0.00,,,0.00,Wunderground v.1.15,2013-09-20 01:05:00,
2013-09-19 21:11:00,56.1,52.0,30.13,SSW,210,0.0,4.0,86,0.00,,,0.00,Wunderground v.1.15,2013-09-20 01:11:00,
2013-09-19 21:17:00,55.7,51.9,30.13,SSW,210,0.0,4.0,87,0.00,,,0.00,Wunderground v.1.15,2013-09-20 01:17:00,
2013-09-19 21:23:00,55.3,51.5,30.13,SSW,210,0.0,4.0,87,0.00,,,0.00,Wunderground v.1.15,2013-09-20 01:23:00,
2013-09-19 21:28:00,55.0,51.5,30.13,SSW,210,0.0,4.0,88,0.00,,,0.00,Wunderground v.1.15,2013-09-20 01:28:00,
2013-09-19 21:34:00,54.7,51.5,30.13,SSW,210,0.0,4.0,89,0.00,,,0.00,Wunderground v.1.15,2013-09-20 01:34:00,
2013-09-19 21:40:00,54.5,51.3,30.13,SSW,210,0.0,4.0,89,0.00,,,0.00,Wunderground v.1.15,2013-09-20 01:40:00,
2013-09-19 21:46:00,54.3,51.4,30.13,SSW,210,0.0,4.0,90,0.00,,,0.00,Wunderground v.1.15,2013-09-20 01:46:00,
2013-09-19 21:51:00,54.1,51.2,30.13,SSW,210,0.0,4.0,90,0.00,,,0.00,Wunderground v.1.15,2013-09-20 01:51:00,
2013-09-19 21:56:00,53.9,51.0,30.13,SSW,210,0.0,4.0,90,0.00,,,0.00,Wunderground v.1.15,2013-09-20 01:56:00,
2013-09-19 22:02:00,53.6,50.7,30.14,SSW,210,0.0,4.0,90,0.00,,,0.00,Wunderground v.1.15,2013-09-20 02:02:00,
2013-09-19 22:07:00,53.4,50.5,30.14,SSW,210,0.0,4.0,90,0.00,,,0.00,Wunderground v.1.15,2013-09-20 02:07:00,
2013-09-19 22:13:00,53.1,50.2,30.14,SSW,209,0.0,4.0,90,0.00,,,0.00,Wunderground v.1.15,2013-09-20 02:13:00,
2013-09-19 22:19:00,52.8,49.9,30.14,SSW,210,0.0,4.0,90,0.00,,,0.00,Wunderground v.1.15,2013-09-20 02:19:00,
2013-09-19 22:24:00,52.7,50.1,30.14,SSW,210,0.0,4.0,91,0.00,,,0.00,Wunderground v.1.15,2013-09-20 02:24:00,
2013-09-19 22:30:00,52.6,50.0,30.13,SSW,210,0.0,4.0,91,0.00,,,0.00,Wunderground v.1.15,2013-09-20 02:30:00,
2013-09-19 22:35:00,52.4,49.8,30.13,SSW,210,0.0,4.0,91,0.00,,,0.00,Wunderground v.1.15,2013-09-20 02:35:00,
2013-09-19 22:41:00,52.1,49.8,30.13,SSW,210,0.0,4.0,92,0.00,,,0.00,Wunderground v.1.15,2013-09-20 02:41:00,
2013-09-19 22:47:00,52.0,49.7,30.13,SSW,210,0.0,4.0,92,0.00,,,0.00,Wunderground v.1.15,2013-09-20 02:47:00,
2013-09-19 22:53:00,51.7,49.5,30.13,SSW,210,0.0,4.0,92,0.00,,,0.00,Wunderground v.1.15,2013-09-20 02:53:00,
2013-09-19 22:58:00,51.5,49.3,30.13,SSW,210,0.0,4.0,92,0.00,,,0.00,Wunderground v.1.15,2013-09-20 02:58:00,
2013-09-19 23:03:00,51.3,49.1,30.13,SSW,210,0.0,4.0,92,0.00,,,0.00,Wunderground v.1.15,2013-09-20 03:03:00,
2013-09-19 23:09:00,51.2,49.0,30.13,SSW,210,0.0,4.0,92,0.00,,,0.00,Wunderground v.1.15,2013-09-20 03:09:00,
2013-09-19 23:14:00,51.0,48.8,30.13,SSW,210,0.0,4.0,92,0.00,,,0.00,Wunderground v.1.15,2013-09-20 03:14:00,
2013-09-19 23:20:00,50.8,48.8,30.13,SSW,210,0.0,4.0,93,0.00,,,0.00,Wunderground v.1.15,2013-09-20 03:20:00,
2013-09-19 23:26:00,50.9,48.9,30.13,SSW,210,0.0,4.0,93,0.00,,,0.00,Wunderground v.1.15,2013-09-20 03:26:00,
2013-09-19 23:32:00,50.8,48.8,30.13,SSW,210,0.0,4.0,93,0.00,,,0.00,Wunderground v.1.15,2013-09-20 03:32:00,
2013-09-19 23:38:00,50.5,48.6,30.13,SSW,210,0.0,4.0,93,0.00,,,0.00,Wunderground v.1.15,2013-09-20 03:38:00,
2013-09-19 23:43:00,50.3,48.4,30.13,SSW,210,0.0,4.0,93,0.00,,,0.00,Wunderground v.1.15,2013-09-20 03:43:00,
2013-09-19 23:49:00,50.2,48.3,30.12,SSW,210,0.0,4.0,93,0.00,,,0.00,Wunderground v.1.15,2013-09-20 03:49:00,
2013-09-19 23:55:00,50.1,48.4,30.13,SSW,210,0.0,4.0,94,0.00,,,0.00,Wunderground v.1.15,2013-09-20 03:55:00,